Location: Chagrin Falls Park
(41.4139°N, 81.3865°W)
Time: 07:20:13
(UTC+00:00)

Envisat - Visible Passes

Search period start: 30 July 2021 00:00
Search period end: 09 August 2021 00:00
Orbit: 764 x 766 km, 98.2° (Epoch: 29 July)

Date Brightness Start Highest point End Pass type
(mag) Time Alt. Az. Time Alt. Az. Time Alt. Az.
30 Jul 5.9 09:24:02 10° ENE 09:26:26 13° E 09:28:49 10° ESE visible
04 Aug 5.7 09:36:57 10° NE 09:40:28 19° E 09:43:57 10° SE visible
07 Aug 5.8 09:26:07 10° ENE 09:28:50 14° E 09:31:34 10° ESE visible
